Skip Navigation LinksHome page > Weather > Current weather Skip Navigation Links

Current Weather

New Tokyo International (Narita), Tokyo

For information only: do not use for flight planning or navigation.
Latest weather
Observation time Sunday, May 24, 2015 1:00 AM JST
Local time Sunday, May 24, 2015 1:24 AM JST
Flight conditions Visual Meteorological Conditions
Winds
Wind direction South-Southeast (160°)
Wind speed 7 mph
Visibility 6.2 mi.
Sky condition
Ceiling unlimited
Sky clear
Temperature 64°F
Dewpoint 59°F
Altimeter 29.83 in.Hg
Derived measurements
Relative humidity 83%
Density altitude 842 ft.
Remarks
Ceiling and visibility OK.
No significant changes expected in the next two hours.
METAR RJAA 231600Z 16006KT CAVOK 18/15 Q1010 NOSIG RMK A2983

Settings

Location code

InnerDrive.Weather 4.0.5567.0 Release CLR 4.0.30319.34014
Copyright ©2015 Inner Drive Technology. All rights reserved. Portions Copyright ©1986-2015 David Braverman.

Find weather

Site navigation


Skip Navigation Links

Place info

Page info

PayPal - The safer, easier way to pay online!

Return home.

Copyright ©2015 Inner Drive Technology. Purveyors of fine, hand-crafted computer software. Page printed 2015-05-23T16:24:04 UTC.